Theta_e
325 325 327 327 330 333 336 339 340 340 338 337 335 335 335 336 339 336 335 339 339 338 340 346 349 347 347 343 343 346 350 352 351
323 325 327 327 330 332 336 338 340 340 338 337 336 334 335 335 338 336 335 340 342 343 342 345 348 348 347 349 348 348 350 349 350
322 326 327 328 330 333 335 339 340 341 339 337 337 336 336 337 338 339 339 342 340 342 344 345 349 350 347 347 350 350 349 348 350
320 322 325 327 329 332 335 339 339 339 339 337 337 338 338 339 340 342 344 343 341 341 344 346 347 348 350 349 349 350 349 350 350
319 322 324 327 329 332 334 338 339 339 338 338 338 341 341 340 341 342 342 343 344 342 342 345 347 347 347 347 347 348 349 347 349
320 320 322 325 328 332 334 336 338 339 339 339 340 340 342 342 341 342 342 343 344 346 345 344 344 347 345 345 345 343 346 349 348
320 320 321 324 327 331 334 336 337 339 339 340 341 341 342 342 342 343 343 344 344 345 347 344 343 345 349 348 347 347 348 348 349
318 319 320 325 327 329 333 335 337 339 341 341 342 341 342 342 344 345 345 345 345 346 346 346 346 346 347 348 347 349 349 350 350
316 318 319 326 329 330 332 335 337 339 340 342 343 342 342 343 343 344 344 345 345 346 347 346 345 344 345 345 347 338 337 344 348
318 318 318 324 328 330 333 336 338 337 340 343 342 342 343 343 343 342 344 346 346 344 345 343 345 344 342 341 341 333 335 338 344
319 319 320 322 327 330 332 338 339 341 343 343 342 342 343 344 344 344 345 345 343 343 345 341 342 342 342 342 342 331 332 334 345
320 321 325 326 328 330 332 338 340 341 342 342 342 342 342 344 347 346 345 345 343 343 344 342 344 344 344 344 345 329 328 333 343
323 327 329 330 332 333 333 338 341 341 342 342 339 342 343 346 346 347 346 344 343 341 340 342 345 344 344 338 345 331 328 329 343
326 329 330 334 334 333 333 339 341 340 341 341 343 345 346 345 346 344 346 343 343 343 342 343 342 340 341 341 337 338 319 320 339
324 323 329 336 335 335 336 340 341 339 339 343 343 344 345 345 344 345 345 344 344 343 342 339 337 338 337 336 337 324 321 315 318
322 324 325 333 337 337 339 340 341 338 341 342 343 344 345 345 344 346 346 344 341 340 339 337 335 334 334 335 336 335 319 318 320
316 322 326 331 337 337 338 340 341 341 342 345 344 343 343 344 344 344 344 343 341 338 336 334 334 333 333 335 333 332 332 331 331
316 321 325 330 332 336 339 340 341 343 344 345 343 341 343 344 343 342 338 336 334 336 336 331 335 336 336 333 332 330 320 321 326
317 321 324 328 331 336 340 341 341 342 346 345 342 340 340 339 339 338 337 331 326 306 307 303 302 303 321 324 310 302 300 299 300
318 321 323 327 332 338 334 334 335 336 340 343 341 339 337 335 334 336 335 335 334 334 316 302 300 300 301 302 307 299 297 298 299
Wind_Speed
9 13 14 15 16 15 15 16 16 13 13 10 11 11 11 7 7 5 5 4 4 4 4 3 3 5 5 5 5 3 3 2 2
12 14 15 16 16 18 17 18 19 18 15 12 12 12 10 8 7 6 6 5 4 3 4 3 4 5 5 5 4 4 4 3 3
9 9 11 12 13 16 15 18 16 12 13 15 14 12 10 9 9 7 6 5 5 5 5 5 4 4 5 5 5 5 5 4 4
9 7 11 12 13 13 14 14 16 14 14 13 13 12 10 10 10 8 6 6 5 5 4 5 5 4 4 5 6 6 5 5 4
7 7 8 9 9 12 15 17 16 17 15 14 13 13 11 11 9 8 8 7 6 5 6 4 5 3 4 4 6 5 5 6 5
5 6 7 7 8 14 16 17 16 16 16 15 12 12 11 10 10 9 9 9 7 6 6 5 5 4 5 4 4 4 5 5 5
5 8 8 7 9 12 15 15 13 14 14 13 10 8 9 10 11 10 9 8 7 7 5 4 4 5 5 5 5 6 6 6 6
9 7 9 8 10 10 11 13 13 12 12 12 14 14 12 12 9 8 7 7 7 7 6 6 6 5 5 3 3 4 6 5 6
10 7 7 9 7 8 11 15 15 14 12 14 13 11 10 9 8 9 10 9 8 7 8 7 6 5 4 3 1 5 8 8 7
15 9 8 10 12 11 11 14 15 12 15 12 10 6 7 9 10 9 9 7 5 7 8 5 7 4 3 5 5 5 11 10 7
14 12 9 8 11 11 11 10 11 10 12 10 13 10 5 8 9 9 8 9 7 6 3 4 4 7 12 9 6 7 12 12 5
11 12 10 6 7 8 10 13 13 13 13 14 11 11 12 8 10 9 8 7 7 5 3 2 5 5 6 7 6 9 11 7 5
14 9 10 5 6 6 10 10 12 14 15 15 14 13 15 12 12 10 10 8 11 6 4 4 4 4 4 6 5 6 6 6 3
8 6 8 6 5 7 8 11 14 14 13 15 16 12 12 13 13 12 9 8 4 5 6 5 4 3 2 3 2 2 4 2 4
11 12 11 5 5 6 8 12 12 12 15 11 9 10 11 11 10 8 8 10 6 7 6 5 4 4 2 1 1 2 5 6 8
10 9 9 6 3 5 6 8 10 11 7 9 9 9 9 7 6 6 8 9 8 6 5 5 4 3 3 3 2 1 3 5 3
9 7 5 7 2 5 5 6 7 7 8 8 9 8 8 8 8 7 6 4 5 6 5 5 4 4 3 2 2 3 2 2 2
10 8 5 4 4 3 3 6 4 5 8 8 7 7 7 8 7 7 6 4 3 4 3 3 4 4 3 4 4 3 4 4 2
6 9 5 3 3 0 4 7 7 6 6 10 9 6 5 5 6 6 6 6 4 8 7 5 4 2 3 2 5 8 10 10 9
5 8 7 8 5 5 11 8 11 7 2 5 10 9 7 5 6 6 6 5 4 4 3 7 6 5 5 4 6 10 9 9 8
Wind_Direction
181 190 185 187 179 174 174 169 175 176 167 183 187 189 195 190 180 184 203 193 186 213 200 203 177 198 205 214 217 225 224 245 211
191 195 194 195 181 177 171 174 185 182 174 176 192 192 186 189 191 188 200 202 195 212 210 208 218 206 213 218 207 208 195 222 235
224 191 196 191 186 181 179 179 185 178 177 183 188 185 186 187 195 196 195 174 207 216 217 201 209 220 222 216 208 187 201 201 218
233 197 190 188 189 178 173 176 177 180 179 180 185 187 183 181 190 195 186 185 201 215 207 201 215 220 226 215 210 203 190 203 200
209 180 190 192 178 167 171 176 177 181 182 186 190 185 185 183 187 185 192 197 197 208 217 205 211 220 238 242 204 180 211 214 205
165 176 176 183 165 175 178 179 182 182 182 188 183 179 185 188 186 187 198 206 196 194 203 215 214 206 222 218 234 207 232 240 232
210 178 179 194 195 185 183 179 175 179 179 180 166 164 187 194 190 192 199 198 187 197 208 213 225 230 219 214 209 225 216 214 229
282 171 160 182 191 190 175 174 173 177 173 170 168 175 182 197 194 189 181 188 190 191 194 209 217 224 233 263 271 251 229 227 228
278 250 175 173 178 169 183 177 181 173 175 179 167 161 187 180 178 186 191 192 189 187 206 203 190 176 181 195 212 283 287 264 223
298 282 192 180 178 188 184 190 173 168 164 162 179 144 171 187 177 190 191 166 175 208 209 188 170 166 319 299 259 279 307 286 249
326 296 243 192 179 183 186 181 179 141 159 166 143 157 179 216 184 193 181 165 175 211 157 186 194 188 210 221 232 226 242 250 240
313 309 276 233 200 175 167 169 163 163 161 174 176 170 189 185 210 193 170 186 165 148 144 205 199 211 210 211 228 217 228 193 212
323 325 322 257 172 134 144 151 155 163 169 179 202 173 167 214 208 186 185 169 171 186 166 199 197 185 192 194 218 216 214 195 212
314 309 311 289 174 153 152 147 151 165 170 191 198 163 176 192 190 183 180 165 176 154 169 163 160 171 165 198 226 267 2 230 230
319 336 330 326 161 150 156 158 158 170 186 189 163 158 163 176 175 166 153 153 154 158 141 137 157 162 188 222 178 28 358 321 235
322 319 319 318 186 152 158 162 166 174 186 153 154 161 159 159 146 139 148 143 145 140 142 146 157 176 201 226 200 183 67 57 91
322 304 319 324 51 167 166 168 173 163 145 147 156 152 140 142 147 143 136 123 140 142 155 165 171 181 210 230 227 214 182 136 113
311 297 310 339 355 36 132 126 118 113 134 144 137 137 147 148 143 140 133 116 149 169 164 162 172 193 195 196 226 213 164 161 147
283 303 291 264 298 130 107 108 114 116 143 144 138 132 141 155 141 148 152 151 139 52 54 32 27 271 220 155 85 130 128 122 115
249 286 277 263 240 165 100 90 76 34 79 169 147 155 148 153 158 157 160 162 157 158 80 76 59 59 91 78 161 152 142 129 113